M I D A S
Marine Information and Data Acquisition System
Tripno 1466 of the Zeeleeuw from 2008-04-25 06:40:08 to 2008-04-25 13:13:30
Back to CruiseResearch ActivitiesStationsMapUnderway DataData graphs

EquipmentUnitsComments
TimeDGPSUTC
LatitudeDGPSDM.mWGS84
LongitudeDGPSDM.mWGS84
SpeedMeteo Stationm/sRelative wind speed
DirectionMeteo StationdegRelative wind direction
TemperatureMeteo Stationdeg CelciusAir temperature
PressureMeteo StationPaAtmospheric pressure
HumidityMeteo Station%Relative humidity
Missing or incorrect values are displayed as -999
Metereological data collected by the RV Zeeleeuw from 2008-04-25 06:36:28 to 2008-04-25 13:23:19
                                                                                    Next 1000 lines
Time Latitude Longitude Speed Direction Temperature Pressure Humidity
2008-04-25 06:36:39 51°13.664 2°55.95 -999 -999 -999 -999 -999
2008-04-25 06:36:43 51°13.664 2°55.947 -999 -999 -999 -999 -999
2008-04-25 06:36:47 51°13.665 2°55.944 -999 -999 -999 -999 -999
2008-04-25 06:36:53 51°13.667 2°55.938 -999 -999 -999 -999 -999
2008-04-25 06:36:58 51°13.668 2°55.932 -999 -999 -999 -999 -999
2008-04-25 06:37:03 51°13.669 2°55.926 -999 -999 -999 -999 -999
2008-04-25 06:37:09 51°13.671 2°55.919 -999 -999 -999 -999 -999
2008-04-25 06:37:13 51°13.673 2°55.913 -999 -999 -999 -999 -999
2008-04-25 06:37:18 51°13.674 2°55.906 -999 -999 -999 -999 -999
2008-04-25 06:37:23 51°13.676 2°55.899 -999 -999 -999 -999 -999
2008-04-25 06:37:29 51°13.678 2°55.889 -999 -999 -999 -999 -999
2008-04-25 06:37:33 51°13.68 2°55.883 -999 -999 -999 -999 -999
2008-04-25 06:37:38 51°13.681 2°55.875 -999 -999 -999 -999 -999
2008-04-25 06:37:43 51°13.683 2°55.866 -999 -999 -999 -999 -999
2008-04-25 06:37:48 51°13.684 2°55.858 -999 -999 -999 -999 -999
2008-04-25 06:37:53 51°13.686 2°55.849 -999 -999 -999 -999 -999
2008-04-25 06:37:58 51°13.687 2°55.841 -999 -999 -999 -999 -999
2008-04-25 06:38:03 51°13.689 2°55.833 -999 -999 -999 -999 -999
2008-04-25 06:38:08 51°13.689 2°55.825 -999 -999 -999 -999 -999
2008-04-25 06:38:14 51°13.691 2°55.815 -999 -999 -999 -999 -999
2008-04-25 06:38:19 51°13.692 2°55.808 -999 -999 -999 -999 -999
2008-04-25 06:38:23 51°13.692 2°55.802 -999 -999 -999 -999 -999
2008-04-25 06:38:28 51°13.693 2°55.795 -999 -999 -999 -999 -999
2008-04-25 06:38:33 51°13.693 2°55.788 -999 -999 -999 -999 -999
2008-04-25 06:38:38 51°13.694 2°55.781 -999 -999 -999 -999 -999
2008-04-25 06:38:43 51°13.694 2°55.774 -999 -999 -999 -999 -999
2008-04-25 06:38:49 51°13.695 2°55.767 -999 -999 -999 -999 -999
2008-04-25 06:38:53 51°13.695 2°55.762 -999 -999 -999 -999 -999
2008-04-25 06:38:58 51°13.695 2°55.757 -999 -999 -999 -999 -999
2008-04-25 06:39:04 51°13.695 2°55.751 -999 -999 -999 -999 -999
2008-04-25 06:39:07 51°13.695 2°55.748 -999 -999 -999 -999 -999
2008-04-25 06:39:13 51°13.695 2°55.743 -999 -999 -999 -999 -999
2008-04-25 06:39:19 51°13.695 2°55.738 -999 -999 -999 -999 -999
2008-04-25 06:39:23 51°13.695 2°55.736 -999 -999 -999 -999 -999
2008-04-25 06:39:28 51°13.695 2°55.732 -999 -999 -999 -999 -999
2008-04-25 06:39:32 51°13.695 2°55.73 -999 -999 -999 -999 -999
2008-04-25 06:39:39 51°13.695 2°55.727 -999 -999 -999 -999 -999
2008-04-25 06:39:43 51°13.694 2°55.725 -999 -999 -999 -999 -999
2008-04-25 06:39:48 51°13.694 2°55.723 -999 -999 -999 -999 -999
2008-04-25 06:39:52 51°13.694 2°55.722 -999 -999 -999 -999 -999
2008-04-25 06:39:58 51°13.694 2°55.721 -999 -999 -999 -999 -999
2008-04-25 06:40:03 51°13.695 2°55.72 -999 -999 -999 -999 -999
2008-04-25 06:40:08 51°13.695 2°55.719 -999 -999 -999 -999 -999
2008-04-25 06:40:13 51°13.695 2°55.719 -999 -999 -999 -999 -999
2008-04-25 06:40:17 51°13.695 2°55.719 -999 -999 -999 -999 -999
2008-04-25 06:40:23 51°13.696 2°55.719 -999 -999 -999 -999 -999
2008-04-25 06:40:29 51°13.698 2°55.72 -999 -999 -999 -999 -999
2008-04-25 06:40:33 51°13.698 2°55.721 -999 -999 -999 -999 -999
2008-04-25 06:40:39 51°13.7 2°55.722 -999 -999 -999 -999 -999
2008-04-25 06:40:43 51°13.702 2°55.722 -999 -999 -999 -999 -999
2008-04-25 06:40:48 51°13.704 2°55.723 -999 -999 -999 -999 -999
2008-04-25 06:40:53 51°13.707 2°55.724 -999 -999 -999 -999 -999
2008-04-25 06:40:58 51°13.71 2°55.724 -999 -999 -999 -999 -999
2008-04-25 06:41:03 51°13.713 2°55.723 -999 -999 -999 -999 -999
2008-04-25 06:41:07 51°13.716 2°55.723 -999 -999 -999 -999 -999
2008-04-25 06:41:14 51°13.722 2°55.72 -999 -999 -999 -999 -999
2008-04-25 06:41:18 51°13.726 2°55.718 -999 -999 -999 -999 -999
2008-04-25 06:41:23 51°13.732 2°55.715 -999 12 -999 -999 -999
2008-04-25 06:41:27 51°13.737 2°55.712 4.1 30 -999 -999 -999
2008-04-25 06:41:33 51°13.744 2°55.706 4 26 -999 -999 -999
2008-04-25 06:41:38 51°13.751 2°55.701 2.7 39 -999 -999 -999
2008-04-25 06:41:43 51°13.759 2°55.696 2.4 26 10.2 -999 78
2008-04-25 06:41:48 51°13.766 2°55.69 3.8 33 10.2 -999 78
2008-04-25 06:41:53 51°13.774 2°55.684 4.4 26 10.3 -999 86
2008-04-25 06:41:59 51°13.784 2°55.676 4.1 37 10.3 -999 86
2008-04-25 06:42:03 51°13.791 2°55.671 3.9 24 10.3 102680 86
2008-04-25 06:42:08 51°13.799 2°55.665 4 327 10.3 102680 86
2008-04-25 06:42:13 51°13.808 2°55.658 3.6 324 10.3 102680 86
2008-04-25 06:42:18 51°13.816 2°55.652 3.7 34 10.3 102680 86
2008-04-25 06:42:23 51°13.825 2°55.646 4.2 316 10.3 102670 86
2008-04-25 06:42:27 51°13.832 2°55.641 3.4 316 10.3 102670 86
2008-04-25 06:42:32 51°13.84 2°55.635 2.9 332 10.3 102680 86
2008-04-25 06:42:38 51°13.851 2°55.627 3.9 340 10.3 102680 86
2008-04-25 06:42:43 51°13.86 2°55.621 3.3 329 10.3 102680 86
2008-04-25 06:42:48 51°13.868 2°55.614 3.8 316 10.3 102680 86
2008-04-25 06:42:52 51°13.875 2°55.609 5.4 19 10.3 102680 86
2008-04-25 06:42:58 51°13.886 2°55.602 5.6 237 10.3 102680 86
2008-04-25 06:43:03 51°13.894 2°55.595 5.6 22 10.3 102680 86
2008-04-25 06:43:08 51°13.902 2°55.59 2.9 324 10.3 102680 86
2008-04-25 06:43:13 51°13.911 2°55.584 3.5 333 10.4 102680 86
2008-04-25 06:43:18 51°13.919 2°55.578 5.2 328 10.4 102680 86
2008-04-25 06:43:23 51°13.927 2°55.572 5.4 322 10.3 102680 86
2008-04-25 06:43:28 51°13.935 2°55.566 5.7 304 10.3 102680 86
2008-04-25 06:43:33 51°13.944 2°55.56 4.3 20 10.3 102680 86
2008-04-25 06:43:38 51°13.952 2°55.553 4.5 37 10.3 102680 86
2008-04-25 06:43:43 51°13.96 2°55.548 3.7 27 10.3 102680 86
2008-04-25 06:43:47 51°13.966 2°55.543 4.1 36 10.3 102680 86
2008-04-25 06:43:53 51°13.976 2°55.536 3.9 18 10.3 102680 86
2008-04-25 06:43:58 51°13.984 2°55.53 6.5 32 10.3 102680 86
2008-04-25 06:44:04 51°13.994 2°55.523 7.1 21 10.3 102680 86
2008-04-25 06:44:08 51°14.001 2°55.519 3.6 304 10.3 102680 86
2008-04-25 06:44:14 51°14.011 2°55.512 4.9 317 10.3 102680 86
2008-04-25 06:44:18 51°14.018 2°55.507 4.3 327 10.3 102680 86
2008-04-25 06:44:23 51°14.026 2°55.502 5.6 25 10.4 102680 86
2008-04-25 06:44:29 51°14.036 2°55.495 4.5 39 10.4 102680 86
2008-04-25 06:44:33 51°14.042 2°55.491 5.2 20 10.4 102680 86
2008-04-25 06:44:38 51°14.051 2°55.485 4 308 10.4 102680 86
2008-04-25 06:44:43 51°14.059 2°55.479 2.8 26 10.4 102680 86
2008-04-25 06:44:48 51°14.067 2°55.473 4 235 10.4 102680 86
2008-04-25 06:44:53 51°14.075 2°55.467 2.3 316 10.4 102680 86
2008-04-25 06:44:58 51°14.083 2°55.462 4.1 302 10.4 102680 86
2008-04-25 06:45:03 51°14.092 2°55.456 3.8 27 10.4 102680 86
2008-04-25 06:45:08 51°14.1 2°55.449 4.3 315 10.4 102680 86
2008-04-25 06:45:13 51°14.109 2°55.442 3.1 315 10.4 102680 86
2008-04-25 06:45:18 51°14.118 2°55.435 5.8 319 10.4 102680 86
2008-04-25 06:45:23 51°14.128 2°55.428 4.8 25 10.4 102680 86
2008-04-25 06:45:28 51°14.138 2°55.42 4.9 316 10.4 102680 86
2008-04-25 06:45:33 51°14.148 2°55.412 5.3 316 10.4 102680 87
2008-04-25 06:45:38 51°14.158 2°55.403 7.7 36 10.4 102680 87
2008-04-25 06:45:43 51°14.169 2°55.394 9.1 21 10.4 102680 87
2008-04-25 06:45:48 51°14.179 2°55.385 6.2 303 10.4 102680 87
2008-04-25 06:45:54 51°14.191 2°55.373 7.2 21 10.4 102680 87
2008-04-25 06:45:58 51°14.199 2°55.365 7.6 315 10.4 102680 87
2008-04-25 06:46:03 51°14.209 2°55.354 8 22 10.4 102680 86
2008-04-25 06:46:09 51°14.22 2°55.342 8.2 238 10.4 102680 86
2008-04-25 06:46:13 51°14.226 2°55.334 7 23 10.4 102680 86
2008-04-25 06:46:18 51°14.235 2°55.324 7.2 32 10.4 102680 86
2008-04-25 06:46:23 51°14.242 2°55.313 9.5 25 10.4 102680 86
2008-04-25 06:46:27 51°14.248 2°55.305 8 31 10.4 102680 86
2008-04-25 06:46:32 51°14.255 2°55.293 8.2 25 10.4 102670 87
2008-04-25 06:46:38 51°14.262 2°55.28 8.3 37 10.4 102670 87
2008-04-25 06:46:42 51°14.267 2°55.271 9.1 25 10.4 102670 87
2008-04-25 06:46:47 51°14.273 2°55.26 9.2 34 10.4 102670 87
2008-04-25 06:46:52 51°14.279 2°55.249 8.1 23 10.4 102680 87
2008-04-25 06:46:57 51°14.285 2°55.237 8.7 34 10.4 102680 87
2008-04-25 06:47:02 51°14.29 2°55.226 9.1 26 10.4 102680 87
2008-04-25 06:47:07 51°14.296 2°55.215 8.7 35 10.4 102680 87
2008-04-25 06:47:13 51°14.303 2°55.202 9.6 23 10.4 102680 87
2008-04-25 06:47:17 51°14.307 2°55.193 9.3 32 10.4 102680 87
2008-04-25 06:47:22 51°14.313 2°55.182 9.3 21 10.4 102680 87
2008-04-25 06:47:28 51°14.319 2°55.168 5.7 35 10.4 102680 87
2008-04-25 06:47:33 51°14.324 2°55.157 5.8 27 10.3 102680 87
2008-04-25 06:47:38 51°14.329 2°55.146 5.9 36 10.3 102680 87
2008-04-25 06:47:43 51°14.335 2°55.135 7.6 24 10.3 102680 87
2008-04-25 06:47:48 51°14.34 2°55.124 9.5 38 10.3 102680 87
2008-04-25 06:47:53 51°14.345 2°55.113 8.2 26 10.3 102680 87
2008-04-25 06:47:58 51°14.351 2°55.102 8.1 37 10.3 102680 87
2008-04-25 06:48:03 51°14.356 2°55.092 9.4 26 10.3 102680 88
2008-04-25 06:48:07 51°14.36 2°55.083 8.3 39 10.3 102680 88
2008-04-25 06:48:12 51°14.365 2°55.072 8.6 21 10.3 102680 88
2008-04-25 06:48:17 51°14.371 2°55.061 8.3 33 10.3 102680 88
2008-04-25 06:48:22 51°14.377 2°55.049 9 20 10.3 102680 88
2008-04-25 06:48:27 51°14.382 2°55.036 8.5 32 10.3 102680 88
2008-04-25 06:48:32 51°14.388 2°55.023 9.9 25 10.3 102680 88
2008-04-25 06:48:37 51°14.394 2°55.009 10.6 38 10.3 102680 88
2008-04-25 06:48:42 51°14.401 2°54.995 10.4 20 10.3 102670 88
2008-04-25 06:48:47 51°14.408 2°54.98 10.5 32 10.3 102670 88
2008-04-25 06:48:51 51°14.414 2°54.969 10.2 24 10.3 102670 88
2008-04-25 06:48:57 51°14.424 2°54.951 9 37 10.3 102670 88
2008-04-25 06:49:02 51°14.432 2°54.936 9.6 25 10.3 102670 88
2008-04-25 06:49:07 51°14.442 2°54.923 10.3 234 10.3 102670 88
2008-04-25 06:49:11 51°14.449 2°54.912 8.4 20 10.3 102670 88
2008-04-25 06:49:16 51°14.46 2°54.9 10.1 234 10.3 102670 88
2008-04-25 06:49:21 51°14.47 2°54.887 10 25 10.3 102670 88
2008-04-25 06:49:26 51°14.481 2°54.874 10.5 235 10.3 102670 88
2008-04-25 06:49:31 51°14.492 2°54.863 10.2 22 10.3 102670 88
2008-04-25 06:49:36 51°14.504 2°54.852 10.8 33 10.3 102670 88
2008-04-25 06:49:40 51°14.513 2°54.842 9.1 25 10.3 102670 88
2008-04-25 06:49:46 51°14.527 2°54.828 9 234 10.3 102670 88
2008-04-25 06:49:51 51°14.54 2°54.816 8.6 25 10.3 102670 88
2008-04-25 06:49:55 51°14.55 2°54.806 8.9 37 10.3 102670 88
2008-04-25 06:50:01 51°14.565 2°54.791 8.5 19 10.3 102670 88
2008-04-25 06:50:06 51°14.578 2°54.779 10 236 10.3 102670 88
2008-04-25 06:50:10 51°14.589 2°54.768 9.7 27 10.3 102670 89
2008-04-25 06:50:15 51°14.602 2°54.756 9.8 34 10.3 102670 89
2008-04-25 06:50:20 51°14.616 2°54.744 8.9 26 10.3 102660 89
2008-04-25 06:50:25 51°14.63 2°54.732 11.2 303 10.3 102660 89
2008-04-25 06:50:30 51°14.645 2°54.72 9.3 25 10.3 102660 89
2008-04-25 06:50:35 51°14.659 2°54.708 10.5 233 10.3 102660 89
2008-04-25 06:50:39 51°14.671 2°54.698 11.8 25 10.3 102670 89
2008-04-25 06:50:45 51°14.688 2°54.683 10.9 33 10.3 102670 89
2008-04-25 06:50:49 51°14.7 2°54.672 10.4 23 10.2 102660 89
2008-04-25 06:50:55 51°14.717 2°54.658 9.6 233 10.2 102660 89
2008-04-25 06:50:59 51°14.729 2°54.648 10.4 28 10.3 102670 89
2008-04-25 06:51:05 51°14.747 2°54.633 12 33 10.3 102670 89
2008-04-25 06:51:10 51°14.762 2°54.618 10.5 24 10.3 102660 89
2008-04-25 06:51:15 51°14.776 2°54.605 11 36 10.3 102660 89
2008-04-25 06:51:20 51°14.791 2°54.59 9.7 23 10.2 102670 89
2008-04-25 06:51:25 51°14.805 2°54.576 11.4 37 10.2 102670 89
2008-04-25 06:51:30 51°14.82 2°54.561 10.6 27 10.2 102660 89
2008-04-25 06:51:35 51°14.835 2°54.546 11.9 35 10.2 102660 89
2008-04-25 06:51:40 51°14.849 2°54.531 12.1 21 10.2 102660 89
2008-04-25 06:51:45 51°14.863 2°54.516 12.4 233 10.2 102660 89
2008-04-25 06:51:50 51°14.877 2°54.5 10.8 23 10.2 102670 89
2008-04-25 06:51:55 51°14.892 2°54.485 12.3 35 10.2 102670 89
2008-04-25 06:52:00 51°14.905 2°54.468 11.9 22 10.2 102660 89
2008-04-25 06:52:05 51°14.919 2°54.453 11.7 33 10.2 102660 89
2008-04-25 06:52:10 51°14.934 2°54.437 11.9 20 10.2 102660 89
2008-04-25 06:52:15 51°14.947 2°54.421 10.4 34 10.2 102660 89
2008-04-25 06:52:20 51°14.961 2°54.406 10.6 20 10.2 102660 89
2008-04-25 06:52:25 51°14.975 2°54.391 11.6 32 10.2 102660 89
2008-04-25 06:52:30 51°14.99 2°54.376 10.1 22 10.2 102670 89
2008-04-25 06:52:35 51°15.004 2°54.361 11.3 35 10.2 102670 89
2008-04-25 06:52:40 51°15.018 2°54.346 10.3 27 10.2 102660 89
2008-04-25 06:52:45 51°15.032 2°54.332 12.5 34 10.2 102660 89
2008-04-25 06:52:50 51°15.046 2°54.316 10 21 10.2 102660 89
2008-04-25 06:52:55 51°15.06 2°54.3 12.5 37 10.2 102660 89
2008-04-25 06:53:00 51°15.073 2°54.283 10.8 22 10.2 102670 89
2008-04-25 06:53:05 51°15.087 2°54.267 11.6 33 10.2 102670 89
2008-04-25 06:53:09 51°15.098 2°54.255 10.7 21 10.2 102670 89
2008-04-25 06:53:15 51°15.116 2°54.238 10.7 32 10.2 102670 89
2008-04-25 06:53:20 51°15.131 2°54.227 9.5 22 10.2 102660 89
2008-04-25 06:53:25 51°15.146 2°54.217 9.9 35 10.2 102660 89
2008-04-25 06:53:30 51°15.162 2°54.209 10 21 10.2 102660 89
2008-04-25 06:53:35 51°15.178 2°54.204 8.5 239 10.2 102660 89
2008-04-25 06:53:40 51°15.195 2°54.201 8.9 282 10.2 102670 89
2008-04-25 06:53:45 51°15.211 2°54.198 9.6 31 10.2 102670 89
2008-04-25 06:53:50 51°15.227 2°54.195 9.8 23 10.2 102670 90
2008-04-25 06:53:55 51°15.243 2°54.189 8.3 32 10.2 102670 90
2008-04-25 06:54:00 51°15.259 2°54.182 10.4 25 10.2 102670 90
2008-04-25 06:54:05 51°15.275 2°54.174 11.3 236 10.2 102670 90
2008-04-25 06:54:10 51°15.291 2°54.166 9.4 26 10.2 102680 90
2008-04-25 06:54:15 51°15.306 2°54.157 11.4 33 10.2 102680 90
2008-04-25 06:54:20 51°15.321 2°54.149 11.3 20 10.2 102670 90
2008-04-25 06:54:25 51°15.336 2°54.139 10.7 235 10.2 102670 90
2008-04-25 06:54:30 51°15.352 2°54.129 10.7 20 10.2 102670 90
2008-04-25 06:54:35 51°15.367 2°54.119 9.6 236 10.2 102670 90
2008-04-25 06:54:40 51°15.382 2°54.11 11.3 20 10.2 102680 90
2008-04-25 06:54:45 51°15.398 2°54.101 9.9 236 10.2 102680 90
2008-04-25 06:54:50 51°15.413 2°54.092 9.6 281 10.2 102670 90
2008-04-25 06:54:55 51°15.429 2°54.082 10.2 32 10.2 102670 90
2008-04-25 06:55:00 51°15.444 2°54.072 10.7 23 10.2 102670 90
2008-04-25 06:55:05 51°15.459 2°54.063 10.8 236 10.2 102670 90
2008-04-25 06:55:10 51°15.475 2°54.053 11.2 28 10.1 102670 90
2008-04-25 06:55:15 51°15.49 2°54.042 12.1 33 10.1 102670 90
2008-04-25 06:55:20 51°15.505 2°54.032 11.4 286 10.1 102670 90
2008-04-25 06:55:25 51°15.521 2°54.021 11.8 235 10.1 102670 90
2008-04-25 06:55:30 51°15.536 2°54.011 12 27 10.2 102660 90
2008-04-25 06:55:35 51°15.551 2°54 11.8 34 10.2 102660 90
2008-04-25 06:55:40 51°15.566 2°53.988 10.4 24 10.1 102670 90
2008-04-25 06:55:45 51°15.58 2°53.976 12 32 10.1 102670 90
2008-04-25 06:55:50 51°15.595 2°53.963 11 23 10.1 102670 90
2008-04-25 06:55:55 51°15.61 2°53.95 10 232 10.1 102670 90
2008-04-25 06:56:00 51°15.624 2°53.937 10.8 283 10.1 102660 90
2008-04-25 06:56:05 51°15.639 2°53.924 10.7 35 10.1 102660 90
2008-04-25 06:56:10 51°15.653 2°53.911 10.6 25 10.1 102660 90
2008-04-25 06:56:15 51°15.667 2°53.897 11.8 30 10.1 102660 90
2008-04-25 06:56:20 51°15.682 2°53.883 10.3 282 10.1 102670 90
2008-04-25 06:56:25 51°15.696 2°53.87 12.2 34 10.1 102670 90
2008-04-25 06:56:30 51°15.71 2°53.856 11.1 22 10.1 102660 90
2008-04-25 06:56:35 51°15.725 2°53.843 11 35 10.1 102660 90
2008-04-25 06:56:40 51°15.739 2°53.829 11.5 24 10.1 102660 90
2008-04-25 06:56:45 51°15.754 2°53.816 11.8 33 10.1 102660 90
2008-04-25 06:56:50 51°15.768 2°53.803 11 21 10.1 102670 90
2008-04-25 06:56:55 51°15.783 2°53.791 11 33 10.1 102670 90
2008-04-25 06:57:00 51°15.798 2°53.778 11.6 24 10.1 102660 90
2008-04-25 06:57:05 51°15.813 2°53.765 9.6 36 10.1 102660 90
2008-04-25 06:57:10 51°15.827 2°53.752 11.3 278 10.1 102670 90
2008-04-25 06:57:15 51°15.842 2°53.739 10 38 10.1 102670 90
2008-04-25 06:57:20 51°15.856 2°53.724 11.8 27 10.1 102670 90
2008-04-25 06:57:25 51°15.871 2°53.711 11.4 33 10.1 102670 90
2008-04-25 06:57:29 51°15.882 2°53.7 10.3 24 10.1 102660 90
2008-04-25 06:57:35 51°15.9 2°53.684 10.8 37 10.1 102660 90
2008-04-25 06:57:40 51°15.915 2°53.671 10.3 25 10.1 102670 90
2008-04-25 06:57:45 51°15.929 2°53.658 11 36 10.1 102670 90
2008-04-25 06:57:50 51°15.944 2°53.645 11.9 24 10.1 102670 90
2008-04-25 06:57:55 51°15.959 2°53.632 11.7 33 10.1 102670 90
2008-04-25 06:58:00 51°15.974 2°53.619 10.7 24 10.1 102670 90
2008-04-25 06:58:05 51°15.989 2°53.606 11 34 10.1 102670 90
2008-04-25 06:58:10 51°16.004 2°53.593 12 23 10.1 102670 90
2008-04-25 06:58:15 51°16.019 2°53.58 10.8 38 10.1 102670 90
2008-04-25 06:58:20 51°16.033 2°53.566 12.2 283 10.1 102670 90
2008-04-25 06:58:25 51°16.048 2°53.551 10.5 37 10.1 102670 90
2008-04-25 06:58:30 51°16.062 2°53.537 11.3 27 10.1 102670 90
2008-04-25 06:58:35 51°16.077 2°53.523 10.7 37 10.1 102670 90
2008-04-25 06:58:40 51°16.092 2°53.509 10.4 279 10.1 102660 90
2008-04-25 06:58:45 51°16.107 2°53.496 12.3 36 10.1 102660 90
2008-04-25 06:58:50 51°16.121 2°53.483 10.8 285 10.1 102660 90
2008-04-25 06:58:55 51°16.136 2°53.469 12.6 31 10.1 102660 90
2008-04-25 06:59:00 51°16.151 2°53.454 13.1 19 10.1 102670 90
2008-04-25 06:59:05 51°16.165 2°53.44 12.7 33 10.1 102670 90
2008-04-25 06:59:10 51°16.18 2°53.426 12.7 24 10.1 102670 90
2008-04-25 06:59:15 51°16.195 2°53.413 10 33 10.1 102670 90
2008-04-25 06:59:20 51°16.21 2°53.4 11.3 22 10.1 102670 90
2008-04-25 06:59:25 51°16.226 2°53.387 11.7 34 10.1 102670 90
2008-04-25 06:59:30 51°16.241 2°53.374 10 25 10.1 102660 90
2008-04-25 06:59:35 51°16.256 2°53.361 10.4 35 10.1 102660 90
2008-04-25 06:59:40 51°16.271 2°53.348 9.8 21 10.1 102670 90
2008-04-25 06:59:45 51°16.286 2°53.334 10.8 37 10.1 102670 90
2008-04-25 06:59:50 51°16.301 2°53.32 10.5 279 10.1 102670 91
2008-04-25 06:59:55 51°16.316 2°53.306 10.5 33 10.1 102670 91
2008-04-25 07:00:00 51°16.33 2°53.291 11.6 20 10.1 102670 91
2008-04-25 07:00:05 51°16.345 2°53.276 11.2 32 10.1 102670 91
2008-04-25 07:00:10 51°16.359 2°53.261 11 23 10.1 102670 91
2008-04-25 07:00:15 51°16.373 2°53.245 10.7 37 10.1 102670 91
2008-04-25 07:00:20 51°16.388 2°53.23 11.9 281 10.1 102670 91
2008-04-25 07:00:25 51°16.403 2°53.217 12 36 10.1 102670 91
2008-04-25 07:00:29 51°16.414 2°53.206 11.7 21 10.1 102670 91
2008-04-25 07:00:35 51°16.433 2°53.19 10 233 10.1 102670 91
2008-04-25 07:00:40 51°16.448 2°53.178 9.9 281 10.1 102660 91
2008-04-25 07:00:45 51°16.463 2°53.166 11.9 31 10.1 102660 91
2008-04-25 07:00:50 51°16.479 2°53.154 9.9 23 10.1 102670 91
2008-04-25 07:00:55 51°16.495 2°53.143 10.2 234 10.1 102670 91
2008-04-25 07:01:00 51°16.511 2°53.133 11 23 10.1 102670 91
2008-04-25 07:01:05 51°16.527 2°53.122 9 35 10.1 102670 91
2008-04-25 07:01:10 51°16.542 2°53.112 9.2 25 10.1 102670 91
2008-04-25 07:01:15 51°16.558 2°53.101 9.3 232 10.1 102670 91
2008-04-25 07:01:20 51°16.574 2°53.091 9.7 23 10.1 102670 91
2008-04-25 07:01:25 51°16.59 2°53.081 9.7 36 10.1 102670 91
2008-04-25 07:01:30 51°16.606 2°53.07 11.3 26 10.1 102670 91
2008-04-25 07:01:35 51°16.622 2°53.059 9.2 34 10.1 102670 91
2008-04-25 07:01:40 51°16.638 2°53.048 9.6 25 10.1 102670 91
2008-04-25 07:01:45 51°16.654 2°53.037 9.2 39 10.1 102670 91
2008-04-25 07:01:50 51°16.669 2°53.026 11.1 28 10 102670 91
2008-04-25 07:01:55 51°16.685 2°53.015 11.3 36 10 102670 91
2008-04-25 07:02:00 51°16.701 2°53.003 11.3 23 10.1 102670 91
2008-04-25 07:02:05 51°16.716 2°52.992 9.5 37 10.1 102670 91
2008-04-25 07:02:10 51°16.732 2°52.98 10.4 285 10.1 102670 91
2008-04-25 07:02:15 51°16.748 2°52.969 9 35 10.1 102670 91
2008-04-25 07:02:20 51°16.763 2°52.957 9.5 21 10 102670 91
2008-04-25 07:02:25 51°16.779 2°52.946 10.9 30 10 102670 91
2008-04-25 07:02:30 51°16.795 2°52.935 9.3 24 10.1 102680 91
2008-04-25 07:02:35 51°16.81 2°52.923 10.6 38 10.1 102680 91
2008-04-25 07:02:40 51°16.826 2°52.913 11.5 280 10.1 102670 91
2008-04-25 07:02:45 51°16.841 2°52.902 11.2 32 10.1 102670 91
2008-04-25 07:02:50 51°16.857 2°52.89 10.7 21 10.1 102670 91
2008-04-25 07:02:55 51°16.872 2°52.879 9.4 37 10.1 102670 91
2008-04-25 07:03:00 51°16.887 2°52.868 9.3 277 10.1 102670 91
2008-04-25 07:03:05 51°16.903 2°52.857 9.8 34 10.1 102670 91
2008-04-25 07:03:10 51°16.919 2°52.846 9.6 21 10.1 102670 91
2008-04-25 07:03:15 51°16.934 2°52.835 11.3 36 10.1 102670 91
2008-04-25 07:03:20 51°16.95 2°52.824 11.1 26 10.1 102670 91
2008-04-25 07:03:25 51°16.965 2°52.813 10.6 37 10.1 102670 91
2008-04-25 07:03:30 51°16.981 2°52.802 8.7 24 10 102670 91
2008-04-25 07:03:35 51°16.996 2°52.79 9.4 35 10 102670 91
2008-04-25 07:03:40 51°17.012 2°52.778 9.2 25 10 102670 91
2008-04-25 07:03:45 51°17.027 2°52.767 10 37 10 102670 91
2008-04-25 07:03:50 51°17.043 2°52.755 10.7 26 10 102670 91
2008-04-25 07:03:55 51°17.059 2°52.744 10.2 35 10 102670 91
2008-04-25 07:04:00 51°17.074 2°52.733 10.5 23 10.1 102670 91
2008-04-25 07:04:05 51°17.09 2°52.722 9.7 39 10.1 102670 91
2008-04-25 07:04:10 51°17.106 2°52.714 8.2 24 10 102670 91
2008-04-25 07:04:15 51°17.123 2°52.706 10.6 33 10 102670 91
2008-04-25 07:04:20 51°17.139 2°52.698 8.7 25 10.1 102670 91
2008-04-25 07:04:25 51°17.155 2°52.692 9.8 235 10.1 102670 91
2008-04-25 07:04:30 51°17.172 2°52.686 10.2 23 10.1 102670 91
2008-04-25 07:04:35 51°17.189 2°52.681 8.9 238 10.1 102670 91
2008-04-25 07:04:40 51°17.205 2°52.676 9.4 281 10.1 102670 91
2008-04-25 07:04:45 51°17.222 2°52.671 9.1 236 10.1 102670 91
2008-04-25 07:04:49 51°17.235 2°52.668 8.3 23 10.1 102680 91
2008-04-25 07:04:55 51°17.255 2°52.662 7.5 32 10.1 102680 91
2008-04-25 07:05:00 51°17.272 2°52.658 9.3 284 10 102670 91
2008-04-25 07:05:05 51°17.289 2°52.655 8.2 234 10 102670 91
2008-04-25 07:05:10 51°17.307 2°52.651 8.3 23 10.1 102680 91
2008-04-25 07:05:15 51°17.323 2°52.647 9.6 33 10.1 102680 91
2008-04-25 07:05:20 51°17.34 2°52.642 9.5 282 10.1 102680 91
2008-04-25 07:05:25 51°17.357 2°52.638 8.8 237 10.1 102680 91
2008-04-25 07:05:30 51°17.374 2°52.634 8.9 24 10.1 102680 91
2008-04-25 07:05:35 51°17.391 2°52.629 9.5 35 10.1 102680 91
2008-04-25 07:05:40 51°17.408 2°52.625 8.6 23 10.1 102680 91
2008-04-25 07:05:45 51°17.424 2°52.62 8.2 33 10.1 102680 91
2008-04-25 07:05:50 51°17.441 2°52.614 8.8 21 10 102670 91
2008-04-25 07:05:55 51°17.458 2°52.609 9.5 236 10 102670 91
2008-04-25 07:06:00 51°17.474 2°52.603 8.2 24 10.1 102680 91
2008-04-25 07:06:05 51°17.491 2°52.599 9.9 233 10.1 102680 91
2008-04-25 07:06:10 51°17.507 2°52.593 8.3 26 10 102680 91
2008-04-25 07:06:15 51°17.524 2°52.589 8.5 237 10 102680 91
2008-04-25 07:06:20 51°17.54 2°52.583 9.3 21 10 102680 91
2008-04-25 07:06:25 51°17.557 2°52.578 9.3 33 10 102680 91
2008-04-25 07:06:30 51°17.573 2°52.572 7.9 27 10.1 102670 91
2008-04-25 07:06:35 51°17.59 2°52.568 8.9 235 10.1 102670 91
2008-04-25 07:06:40 51°17.606 2°52.562 8.2 21 10.1 102680 91
2008-04-25 07:06:45 51°17.623 2°52.557 8.8 238 10.1 102680 91
2008-04-25 07:06:50 51°17.639 2°52.553 8 27 10.1 102680 91
2008-04-25 07:06:55 51°17.656 2°52.549 7.5 235 10.1 102680 91
2008-04-25 07:07:00 51°17.673 2°52.546 8.6 25 10.1 102680 91
2008-04-25 07:07:05 51°17.69 2°52.542 8.8 237 10.1 102680 91
2008-04-25 07:07:10 51°17.706 2°52.54 7.9 19 10.1 102680 91
2008-04-25 07:07:15 51°17.723 2°52.538 9.3 238 10.1 102680 91
2008-04-25 07:07:20 51°17.74 2°52.537 6.9 27 10.1 102680 91
2008-04-25 07:07:25 51°17.757 2°52.534 8.3 237 10.1 102680 91
2008-04-25 07:07:30 51°17.774 2°52.533 7.5 22 10.1 102680 91
2008-04-25 07:07:35 51°17.791 2°52.53 8.6 32 10.1 102680 91
2008-04-25 07:07:40 51°17.808 2°52.529 8.1 284 10.1 102680 91
2008-04-25 07:07:45 51°17.825 2°52.525 8.1 237 10.1 102680 91
2008-04-25 07:07:50 51°17.842 2°52.523 7.2 21 10.1 102680 91
2008-04-25 07:07:55 51°17.858 2°52.52 8.3 33 10.1 102680 91
2008-04-25 07:08:00 51°17.875 2°52.518 7.8 26 10.1 102680 91
2008-04-25 07:08:05 51°17.892 2°52.515 8.8 237 10.1 102680 91
2008-04-25 07:08:10 51°17.909 2°52.513 9 281 10.1 102680 91
2008-04-25 07:08:15 51°17.926 2°52.511 8.5 37 10.1 102680 91
2008-04-25 07:08:20 51°17.943 2°52.509 8.6 22 10.1 102680 91
2008-04-25 07:08:25 51°17.96 2°52.508 7.7 236 10.1 102680 91
2008-04-25 07:08:30 51°17.977 2°52.507 8.6 19 10.1 102690 91
2008-04-25 07:08:35 51°17.994 2°52.505 7.7 31 10.1 102690 91
2008-04-25 07:08:40 51°18.011 2°52.505 8.7 24 10.1 102680 91
2008-04-25 07:08:45 51°18.028 2°52.502 8.7 32 10.1 102680 91
2008-04-25 07:08:50 51°18.045 2°52.501 7.6 19 10.1 102680 91
2008-04-25 07:08:55 51°18.062 2°52.499 7.3 33 10.1 102680 91
2008-04-25 07:09:00 51°18.078 2°52.498 8.9 22 10.1 102680 91
2008-04-25 07:09:05 51°18.095 2°52.495 6.8 32 10.1 102680 91
2008-04-25 07:09:10 51°18.112 2°52.499 6.3 24 10.1 102680 91
2008-04-25 07:09:15 51°18.129 2°52.499 6.7 241 10.1 102680 91
2008-04-25 07:09:20 51°18.145 2°52.506 7.3 281 10.1 102680 91
2008-04-25 07:09:25 51°18.161 2°52.511 7.3 242 10.1 102680 91
2008-04-25 07:09:30 51°18.177 2°52.519 5.9 24 10.1 102680 91
2008-04-25 07:09:35 51°18.192 2°52.529 5.7 246 10.1 102680 91
2008-04-25 07:09:40 51°18.207 2°52.539 4.5 279 10.1 102680 91
2008-04-25 07:09:45 51°18.221 2°52.554 4.2 242 10.1 102680 91
2008-04-25 07:09:50 51°18.235 2°52.567 3.7 26 10.1 102690 91
2008-04-25 07:09:55 51°18.247 2°52.584 3.1 243 10.1 102690 91
2008-04-25 07:10:00 51°18.26 2°52.601 3.3 284 10.1 102690 92
2008-04-25 07:10:05 51°18.271 2°52.62 3.1 244 10.1 102690 92
2008-04-25 07:10:10 51°18.281 2°52.639 2.3 249 10.1 102700 92
2008-04-25 07:10:15 51°18.29 2°52.661 1.9 233 10.1 102700 92
2008-04-25 07:10:20 51°18.299 2°52.682 1.8 20 10.1 102700 92
2008-04-25 07:10:25 51°18.306 2°52.704 1.3 318 10.1 102700 92
2008-04-25 07:10:30 51°18.312 2°52.728 1.5 318 10.1 102700 92
2008-04-25 07:10:35 51°18.319 2°52.751 1.3 340 10.1 102700 92
2008-04-25 07:10:40 51°18.324 2°52.775 1.2 345 10.1 102700 92
2008-04-25 07:10:45 51°18.33 2°52.799 0.9 341 10.1 102700 92
2008-04-25 07:10:50 51°18.335 2°52.823 0.9 345 10.1 102700 92
2008-04-25 07:10:55 51°18.341 2°52.846 0.9 332 10.1 102700 92
2008-04-25 07:11:00 51°18.346 2°52.871 0.8 338 10.1 102700 92
2008-04-25 07:11:05 51°18.351 2°52.895 0.8 337 10.1 102700 92
2008-04-25 07:11:10 51°18.357 2°52.919 0.8 337 10.1 102700 92
2008-04-25 07:11:15 51°18.362 2°52.943 0.7 339 10.1 102700 92
2008-04-25 07:11:20 51°18.367 2°52.967 0.9 285 10.1 102700 92
2008-04-25 07:11:25 51°18.372 2°52.991 0.8 336 10.1 102700 92
2008-04-25 07:11:29 51°18.376 2°53.011 0.8 336 10.1 102700 92
2008-04-25 07:11:35 51°18.384 2°53.039 0.5 318 10.1 102700 92
2008-04-25 07:11:40 51°18.389 2°53.063 0.4 334 10.1 102700 92
2008-04-25 07:11:45 51°18.396 2°53.087 0.8 30 10.1 102700 92
2008-04-25 07:11:50 51°18.402 2°53.111 0.7 21 10.1 102700 92
2008-04-25 07:11:55 51°18.408 2°53.134 1.3 320 10.1 102700 92
2008-04-25 07:12:00 51°18.414 2°53.157 1.6 281 10.1 102700 92
2008-04-25 07:12:05 51°18.42 2°53.181 1.4 32 10.1 102700 92
2008-04-25 07:12:10 51°18.427 2°53.205 1.3 27 10.1 102700 92
2008-04-25 07:12:15 51°18.433 2°53.228 1.8 36 10.1 102700 92
2008-04-25 07:12:20 51°18.44 2°53.251 1.3 281 10.1 102700 92
2008-04-25 07:12:25 51°18.447 2°53.274 1.2 249 10.1 102700 92
2008-04-25 07:12:30 51°18.453 2°53.297 1.7 22 10.1 102700 92
2008-04-25 07:12:35 51°18.46 2°53.321 1.5 242 10.1 102700 92
2008-04-25 07:12:40 51°18.468 2°53.343 1.8 22 10.1 102700 92
2008-04-25 07:12:45 51°18.474 2°53.367 2.1 33 10.1 102700 92
2008-04-25 07:12:50 51°18.481 2°53.389 1.5 22 10.1 102700 92
2008-04-25 07:12:55 51°18.488 2°53.412 1.7 239 10.1 102700 92
2008-04-25 07:13:00 51°18.495 2°53.435 1.9 24 10.1 102700 92
2008-04-25 07:13:05 51°18.502 2°53.458 2.3 233 10.1 102700 92
2008-04-25 07:13:10 51°18.509 2°53.481 2.5 280 10.1 102710 92
2008-04-25 07:13:15 51°18.516 2°53.504 2.3 33 10.1 102710 92
2008-04-25 07:13:20 51°18.523 2°53.526 2.1 26 10.2 102700 92
2008-04-25 07:13:25 51°18.53 2°53.549 2.4 234 10.2 102700 92
2008-04-25 07:13:30 51°18.537 2°53.572 2.2 21 10.2 102700 92
2008-04-25 07:13:35 51°18.544 2°53.595 2.9 244 10.2 102700 92
2008-04-25 07:13:40 51°18.552 2°53.618 2.7 21 10.2 102700 92
2008-04-25 07:13:45 51°18.559 2°53.641 2.7 31 10.2 102700 92
2008-04-25 07:13:50 51°18.567 2°53.663 2.4 21 10.2 102700 92
2008-04-25 07:13:55 51°18.574 2°53.686 2.3 33 10.2 102700 92
2008-04-25 07:14:00 51°18.581 2°53.709 2.4 22 10.2 102700 92
2008-04-25 07:14:05 51°18.589 2°53.732 2 239 10.2 102700 92
2008-04-25 07:14:10 51°18.596 2°53.755 2 22 10.2 102700 92
2008-04-25 07:14:15 51°18.604 2°53.777 2.5 35 10.2 102700 92
2008-04-25 07:14:20 51°18.611 2°53.8 2.8 281 10.2 102700 92
2008-04-25 07:14:25 51°18.618 2°53.823 1.9 240 10.2 102700 92
2008-04-25 07:14:30 51°18.625 2°53.846 2 27 10.2 102700 92
2008-04-25 07:14:35 51°18.632 2°53.869 1.8 241 10.2 102700 92
2008-04-25 07:14:40 51°18.64 2°53.891 2.1 20 10.2 102700 92
2008-04-25 07:14:45 51°18.647 2°53.914 2.1 243 10.2 102700 92
2008-04-25 07:14:50 51°18.655 2°53.937 1.8 280 10.2 102700 92
2008-04-25 07:14:55 51°18.662 2°53.96 1.8 31 10.2 102700 92
2008-04-25 07:15:00 51°18.67 2°53.982 2.2 245 10.2 102700 92
2008-04-25 07:15:05 51°18.677 2°54.005 2.1 234 10.2 102700 92
2008-04-25 07:15:10 51°18.684 2°54.027 2.6 20 10.2 102700 92
2008-04-25 07:15:15 51°18.691 2°54.051 1.8 237 10.2 102700 92
2008-04-25 07:15:20 51°18.699 2°54.074 2.2 284 10.2 102700 92
2008-04-25 07:15:25 51°18.706 2°54.096 1.5 237 10.2 102700 92
2008-04-25 07:15:30 51°18.713 2°54.119 1.7 20 10.2 102700 92
2008-04-25 07:15:35 51°18.72 2°54.142 1.4 249 10.2 102700 92
2008-04-25 07:15:40 51°18.727 2°54.165 1.4 248 10.2 102700 92
2008-04-25 07:15:45 51°18.734 2°54.188 1.6 248 10.2 102700 92
2008-04-25 07:15:50 51°18.742 2°54.211 2 279 10.2 102700 92
2008-04-25 07:15:55 51°18.75 2°54.234 2.2 239 10.2 102700 92
2008-04-25 07:16:00 51°18.758 2°54.256 2.3 278 10.2 102710 92
2008-04-25 07:16:05 51°18.765 2°54.279 2 246 10.2 102710 92
2008-04-25 07:16:10 51°18.774 2°54.301 2.4 255 10.2 102710 92
2008-04-25 07:16:15 51°18.78 2°54.324 1.4 253 10.2 102710 92
2008-04-25 07:16:20 51°18.789 2°54.347 1.6 282 10.2 102700 92
2008-04-25 07:16:25 51°18.796 2°54.37 1.2 243 10.2 102700 92
2008-04-25 07:16:30 51°18.804 2°54.393 1.5 22 10.2 102700 92
2008-04-25 07:16:35 51°18.81 2°54.416 1.2 249 10.2 102700 92
2008-04-25 07:16:40 51°18.817 2°54.438 1.8 276 10.2 102700 91
2008-04-25 07:16:45 51°18.824 2°54.462 1.2 241 10.2 102700 91
2008-04-25 07:16:50 51°18.832 2°54.485 2.2 27 10.2 102710 91
2008-04-25 07:16:55 51°18.839 2°54.508 1.4 250 10.2 102710 91
2008-04-25 07:17:00 51°18.846 2°54.531 2.1 280 10.2 102710 91
2008-04-25 07:17:05 51°18.853 2°54.554 2.3 254 10.2 102710 91
2008-04-25 07:17:10 51°18.861 2°54.577 2.3 257 10.2 102700 91
2008-04-25 07:17:15 51°18.867 2°54.6 2.2 253 10.2 102700 91
2008-04-25 07:17:20 51°18.875 2°54.623 2.8 257 10.2 102700 91
2008-04-25 07:17:25 51°18.881 2°54.646 1.8 241 10.2 102700 91
2008-04-25 07:17:30 51°18.89 2°54.668 2.7 24 10.2 102700 91
2008-04-25 07:17:35 51°18.897 2°54.691 2.1 242 10.2 102700 91
2008-04-25 07:17:40 51°18.905 2°54.713 2.6 24 10.2 102700 91
2008-04-25 07:17:45 51°18.912 2°54.736 2 33 10.2 102700 91
2008-04-25 07:17:50 51°18.921 2°54.758 2.3 284 10.2 102710 91
2008-04-25 07:17:55 51°18.928 2°54.781 1.8 252 10.2 102710 91
2008-04-25 07:18:00 51°18.935 2°54.804 1.9 20 10.2 102700 91
2008-04-25 07:18:05 51°18.943 2°54.827 1.8 249 10.2 102700 91
2008-04-25 07:18:10 51°18.95 2°54.85 1.9 20 10.2 102710 91
2008-04-25 07:18:15 51°18.957 2°54.872 2.2 247 10.2 102710 91
2008-04-25 07:18:20 51°18.965 2°54.895 2.4 286 10.2 102700 91
2008-04-25 07:18:25 51°18.973 2°54.917 2.8 245 10.2 102700 91
2008-04-25 07:18:30 51°18.981 2°54.939 2.2 246 10.2 102700 91
2008-04-25 07:18:35 51°18.989 2°54.962 2.8 249 10.2 102700 91
2008-04-25 07:18:40 51°18.997 2°54.983 3.1 282 10.2 102700 91
2008-04-25 07:18:45 51°19.005 2°55.005 3.4 254 10.2 102700 91
2008-04-25 07:18:50 51°19.014 2°55.027 3.6 256 10.2 102700 91
2008-04-25 07:18:55 51°19.021 2°55.049 2.2 253 10.2 102700 91
2008-04-25 07:19:00 51°19.029 2°55.072 2.8 281 10.2 102700 91
2008-04-25 07:19:05 51°19.037 2°55.094 2.1 248 10.2 102700 91
2008-04-25 07:19:10 51°19.044 2°55.116 2.4 281 10.2 102700 91
2008-04-25 07:19:15 51°19.052 2°55.139 2.4 245 10.2 102700 91
2008-04-25 07:19:20 51°19.059 2°55.161 2.5 26 10.2 102700 91
2008-04-25 07:19:25 51°19.067 2°55.184 2.9 251 10.2 102700 91
2008-04-25 07:19:30 51°19.074 2°55.206 2.7 248 10.2 102700 91
2008-04-25 07:19:35 51°19.082 2°55.229 2.4 249 10.2 102700 91
2008-04-25 07:19:40 51°19.089 2°55.252 2.4 247 10.2 102700 91
2008-04-25 07:19:45 51°19.096 2°55.275 2.5 245 10.2 102700 91
2008-04-25 07:19:50 51°19.103 2°55.298 2.7 283 10.2 102700 91
2008-04-25 07:19:55 51°19.111 2°55.32 2.3 251 10.2 102700 91
2008-04-25 07:20:00 51°19.118 2°55.344 2.3 284 10.2 102700 91
2008-04-25 07:20:05 51°19.125 2°55.366 2.5 256 10.2 102700 91
2008-04-25 07:20:10 51°19.132 2°55.388 2.4 284 10.2 102700 91
2008-04-25 07:20:15 51°19.14 2°55.411 2.8 243 10.2 102700 91
2008-04-25 07:20:20 51°19.148 2°55.433 2.4 247 10.2 102700 91
2008-04-25 07:20:25 51°19.156 2°55.455 2.4 251 10.2 102700 91
2008-04-25 07:20:30 51°19.163 2°55.477 2.3 25 10.2 102700 91
2008-04-25 07:20:35 51°19.171 2°55.499 2.7 243 10.2 102700 91
2008-04-25 07:20:40 51°19.178 2°55.522 3.2 282 10.2 102700 91
2008-04-25 07:20:45 51°19.186 2°55.544 2.2 250 10.2 102700 91
2008-04-25 07:20:50 51°19.191 2°55.568 1.7 250 10.2 102700 91
2008-04-25 07:20:55 51°19.199 2°55.591 2.4 254 10.2 102700 91
2008-04-25 07:21:00 51°19.204 2°55.615 1.9 254 10.2 102700 91
2008-04-25 07:21:05 51°19.211 2°55.638 1.8 251 10.2 102700 91
2008-04-25 07:21:10 51°19.217 2°55.662 1.8 252 10.2 102700 91
2008-04-25 07:21:15 51°19.224 2°55.685 1.6 245 10.2 102700 91
2008-04-25 07:21:20 51°19.23 2°55.709 1.8 281 10.2 102700 91
2008-04-25 07:21:25 51°19.236 2°55.731 1.8 239 10.2 102700 91
2008-04-25 07:21:30 51°19.241 2°55.755 1.5 28 10.2 102700 91
2008-04-25 07:21:35 51°19.248 2°55.778 1.5 248 10.2 102700 91
2008-04-25 07:21:40 51°19.254 2°55.802 1 283 10.2 102700 91
2008-04-25 07:21:45 51°19.26 2°55.826 1 249 10.2 102700 91
2008-04-25 07:21:50 51°19.266 2°55.849 1 281 10.2 102710 91
2008-04-25 07:21:55 51°19.271 2°55.873 1.4 259 10.2 102710 91
2008-04-25 07:22:00 51°19.277 2°55.896 1.1 256 10.3 102710 91
2008-04-25 07:22:05 51°19.282 2°55.92 1.1 247 10.3 102710 91
2008-04-25 07:22:10 51°19.288 2°55.944 1.1 21 10.3 102710 91
2008-04-25 07:22:15 51°19.293 2°55.967 0.7 248 10.3 102710 91
2008-04-25 07:22:20 51°19.299 2°55.991 0.9 246 10.2 102710 91
2008-04-25 07:22:25 51°19.304 2°56.015 1.3 239 10.2 102710 91
2008-04-25 07:22:30 51°19.311 2°56.038 1.3 315 10.3 102710 91
2008-04-25 07:22:35 51°19.316 2°56.062 1.7 38 10.3 102710 91
2008-04-25 07:22:40 51°19.321 2°56.086 1.6 315 10.3 102710 91
2008-04-25 07:22:45 51°19.327 2°56.11 1.5 249 10.3 102710 91
2008-04-25 07:22:50 51°19.332 2°56.134 1.4 248 10.3 102710 91
2008-04-25 07:22:55 51°19.337 2°56.157 1.1 246 10.3 102710 91
2008-04-25 07:23:00 51°19.342 2°56.182 1.3 278 10.3 102710 91
2008-04-25 07:23:05 51°19.348 2°56.205 1 258 10.3 102710 91
2008-04-25 07:23:10 51°19.353 2°56.229 1.2 260 10.3 102710 91
2008-04-25 07:23:15 51°19.359 2°56.252 1.8 258 10.3 102710 91
2008-04-25 07:23:20 51°19.365 2°56.276 1.6 278 10.3 102710 91
2008-04-25 07:23:25 51°19.372 2°56.298 1.9 44 10.3 102710 91
2008-04-25 07:23:30 51°19.378 2°56.321 1.4 259 10.3 102710 91
2008-04-25 07:23:35 51°19.385 2°56.344 2.2 250 10.3 102710 91
2008-04-25 07:23:40 51°19.391 2°56.367 1.8 284 10.3 102710 91
2008-04-25 07:23:45 51°19.397 2°56.391 1.8 233 10.3 102710 91
2008-04-25 07:23:50 51°19.404 2°56.414 2.4 20 10.3 102710 91
2008-04-25 07:23:55 51°19.41 2°56.437 1.2 245 10.3 102710 91
2008-04-25 07:24:00 51°19.417 2°56.46 1.4 251 10.3 102710 91
2008-04-25 07:24:05 51°19.422 2°56.484 1.4 247 10.3 102710 91
2008-04-25 07:24:10 51°19.429 2°56.507 1.7 282 10.3 102720 91
2008-04-25 07:24:15 51°19.435 2°56.53 1.5 253 10.3 102720 91
2008-04-25 07:24:20 51°19.441 2°56.553 1.7 251 10.3 102720 91
2008-04-25 07:24:25 51°19.448 2°56.576 1.7 258 10.3 102720 91
2008-04-25 07:24:30 51°19.455 2°56.599 1.9 259 10.3 102720 91
2008-04-25 07:24:35 51°19.461 2°56.622 1.7 259 10.3 102720 91
2008-04-25 07:24:40 51°19.467 2°56.645 2.1 281 10.3 102710 91
2008-04-25 07:24:45 51°19.473 2°56.668 1.5 234 10.3 102710 91
2008-04-25 07:24:50 51°19.479 2°56.692 2.3 281 10.3 102720 91
2008-04-25 07:24:55 51°19.486 2°56.715 1.5 33 10.3 102720 91
2008-04-25 07:25:00 51°19.491 2°56.739 1.4 24 10.3 102720 91
2008-04-25 07:25:05 51°19.498 2°56.762 1.7 239 10.3 102720 91
2008-04-25 07:25:10 51°19.503 2°56.785 1.7 21 10.3 102720 91
2008-04-25 07:25:15 51°19.51 2°56.808 1.8 253 10.3 102720 91
2008-04-25 07:25:20 51°19.517 2°56.831 1.4 282 10.3 102720 91
2008-04-25 07:25:25 51°19.523 2°56.853 1.1 263 10.3 102720 91
2008-04-25 07:25:30 51°19.529 2°56.877 1 265 10.3 102720 91
2008-04-25 07:25:35 51°19.536 2°56.899 1.6 243 10.3 102720 91
2008-04-25 07:25:40 51°19.541 2°56.923 1.4 280 10.3 102720 91
2008-04-25 07:25:45 51°19.547 2°56.946 1.5 255 10.3 102720 91
2008-04-25 07:25:50 51°19.554 2°56.969 1.7 254 10.3 102720 91
2008-04-25 07:25:55 51°19.559 2°56.993 1.5 253 10.3 102720 91
2008-04-25 07:26:00 51°19.565 2°57.016 1.8 278 10.3 102720 91
2008-04-25 07:26:05 51°19.571 2°57.04 1.2 248 10.3 102720 91
2008-04-25 07:26:10 51°19.576 2°57.063 1.6 286 10.3 102720 91
2008-04-25 07:26:15 51°19.581 2°57.088 1.9 238 10.3 102720 91
2008-04-25 07:26:20 51°19.587 2°57.111 1.6 22 10.3 102720 91
2008-04-25 07:26:25 51°19.592 2°57.135 1.7 235 10.3 102720 91
2008-04-25 07:26:30 51°19.598 2°57.158 1.8 25 10.3 102720 91
2008-04-25 07:26:35 51°19.604 2°57.182 1.4 242 10.3 102720 91
2008-04-25 07:26:40 51°19.609 2°57.205 1.2 19 10.3 102730 91
2008-04-25 07:26:45 51°19.614 2°57.229 1.3 31 10.3 102730 91
2008-04-25 07:26:50 51°19.62 2°57.252 1.6 280 10.3 102730 91
2008-04-25 07:26:55 51°19.625 2°57.276 1.6 317 10.3 102730 91
2008-04-25 07:27:00 51°19.631 2°57.299 1.1 278 10.3 102730 91
2008-04-25 07:27:05 51°19.636 2°57.323 1.3 320 10.3 102730 91
2008-04-25 07:27:10 51°19.642 2°57.346 1.2 286 10.3 102730 91
2008-04-25 07:27:15 51°19.647 2°57.369 1.6 316 10.3 102730 91
2008-04-25 07:27:20 51°19.653 2°57.393 1.3 281 10.3 102730 91
2008-04-25 07:27:25 51°19.658 2°57.416 1.1 32 10.3 102730 91
2008-04-25 07:27:30 51°19.663 2°57.439 1 21 10.4 102730 91
2008-04-25 07:27:35 51°19.668 2°57.463 0.9 31 10.4 102730 91
2008-04-25 07:27:40 51°19.674 2°57.487 0.7 286 10.4 102730 91
2008-04-25 07:27:45 51°19.68 2°57.51 1.1 243 10.4 102730 91
2008-04-25 07:27:50 51°19.685 2°57.533 0.8 27 10.4 102730 91
2008-04-25 07:27:55 51°19.69 2°57.557 1.4 33 10.4 102730 91
2008-04-25 07:28:00 51°19.696 2°57.581 1.4 286 10.4 102730 91
2008-04-25 07:28:05 51°19.702 2°57.604 1.3 328 10.4 102730 91
2008-04-25 07:28:10 51°19.707 2°57.627 1.3 281 10.4 102730 91
2008-04-25 07:28:15 51°19.713 2°57.651 1.3 38 10.4 102730 91
2008-04-25 07:28:20 51°19.719 2°57.674 1.1 20 10.4 102730 91
2008-04-25 07:28:25 51°19.724 2°57.698 1.2 323 10.4 102730 91
2008-04-25 07:28:30 51°19.73 2°57.721 1.4 25 10.4 102730 91
2008-04-25 07:28:35 51°19.735 2°57.744 1.2 36 10.4 102730 91
2008-04-25 07:28:40 51°19.741 2°57.767 1.3 19 10.4 102730 91
2008-04-25 07:28:45 51°19.747 2°57.79 1 37 10.4 102730 91
2008-04-25 07:28:50 51°19.754 2°57.812 0.9 286 10.4 102730 91
2008-04-25 07:28:55 51°19.759 2°57.836 0.8 34 10.4 102730 91
2008-04-25 07:29:00 51°19.766 2°57.859 0.8 26 10.4 102730 91
2008-04-25 07:29:05 51°19.771 2°57.882 0.7 328 10.4 102730 91
2008-04-25 07:29:10 51°19.776 2°57.905 0.6 26 10.4 102740 91
2008-04-25 07:29:15 51°19.782 2°57.928 0.8 32 10.4 102740 91
2008-04-25 07:29:20 51°19.787 2°57.952 0.6 22 10.4 102730 91
2008-04-25 07:29:25 51°19.793 2°57.975 0.6 31 10.4 102730 91
2008-04-25 07:29:30 51°19.799 2°57.999 0.5 26 10.4 102730 91
2008-04-25 07:29:35 51°19.804 2°58.022 1.1 317 10.4 102730 91
2008-04-25 07:29:40 51°19.81 2°58.045 1.6 285 10.4 102730 91
2008-04-25 07:29:45 51°19.815 2°58.069 1.3 319 10.4 102730 91
2008-04-25 07:29:50 51°19.821 2°58.092 0.8 285 10.4 102730 91
2008-04-25 07:29:55 51°19.825 2°58.116 1.1 332 10.4 102730 91
2008-04-25 07:30:00 51°19.831 2°58.139 0.8 281 10.4 102730 90
2008-04-25 07:30:05 51°19.836 2°58.162 0.7 318 10.4 102730 90
2008-04-25 07:30:10 51°19.841 2°58.185 0.6 325 10.4 102740 90
2008-04-25 07:30:15 51°19.847 2°58.208 1.2 324 10.4 102740 90
2008-04-25 07:30:20 51°19.852 2°58.232 1.1 283 10.4 102740 90
2008-04-25 07:30:25 51°19.858 2°58.254 0.8 320 10.4 102740 90
2008-04-25 07:30:30 51°19.863 2°58.278 0.8 321 10.4 102730 90
2008-04-25 07:30:35 51°19.869 2°58.301 1 240 10.4 102730 90
2008-04-25 07:30:40 51°19.874 2°58.324 1.2 283 10.5 102740 91
2008-04-25 07:30:45 51°19.88 2°58.347 1.5 35 10.5 102740 91
2008-04-25 07:30:50 51°19.886 2°58.37 1.3 23 10.5 102740 91
2008-04-25 07:30:55 51°19.892 2°58.393 1.1 253 10.5 102740 91
2008-04-25 07:31:00 51°19.898 2°58.416 0.9 281 10.5 102740 91
2008-04-25 07:31:05 51°19.905 2°58.439 0.9 257 10.5 102740 91
2008-04-25 07:31:10 51°19.911 2°58.461 0.8 278 10.5 102740 91
2008-04-25 07:31:15 51°19.917 2°58.484 0.7 250 10.5 102740 91
2008-04-25 07:31:20 51°19.923 2°58.507 0.8 19 10.5 102730 91
2008-04-25 07:31:25 51°19.93 2°58.53 1.2 317 10.5 102730 91
2008-04-25 07:31:30 51°19.936 2°58.553 1.1 317 10.5 102730 91
2008-04-25 07:31:35 51°19.942 2°58.576 0.6 318 10.5 102730 91
2008-04-25 07:31:40 51°19.948 2°58.599 0.4 283 10.5 102740 91
2008-04-25 07:31:45 51°19.953 2°58.622 0.4 237 10.5 102740 91
2008-04-25 07:31:50 51°19.959 2°58.645 0.8 277 10.5 102740 90
2008-04-25 07:31:55 51°19.965 2°58.668 0.9 250 10.5 102740 90
2008-04-25 07:32:00 51°19.97 2°58.691 0.6 282 10.5 102740 90
2008-04-25 07:32:05 51°19.976 2°58.714 0.6 248 10.5 102740 90
2008-04-25 07:32:10 51°19.982 2°58.737 0.5 21 10.5 102740 90
2008-04-25 07:32:15 51°19.987 2°58.76 0.7 34 10.5 102740 90
2008-04-25 07:32:20 51°19.993 2°58.783 1.2 279 10.5 102740 90
2008-04-25 07:32:25 51°19.999 2°58.806 0.8 250 10.5 102740 90
2008-04-25 07:32:30 51°20.005 2°58.829 0.8 253 10.5 102740 90
2008-04-25 07:32:35 51°20.01 2°58.852 1.2 246 10.5 102740 90
2008-04-25 07:32:40 51°20.016 2°58.875 0.7 282 10.6 102740 90
2008-04-25 07:32:45 51°20.022 2°58.898 0.6 242 10.6 102740 90
2008-04-25 07:32:50 51°20.028 2°58.92 0.9 21 10.6 102740 90
2008-04-25 07:32:55 51°20.033 2°58.943 1.2 31 10.6 102740 90
2008-04-25 07:33:00 51°20.04 2°58.966 1.7 27 10.6 102740 90
2008-04-25 07:33:05 51°20.045 2°58.989 1.1 32 10.6 102740 90
2008-04-25 07:33:10 51°20.052 2°59.011 1 281 10.6 102740 90
2008-04-25 07:33:15 51°20.057 2°59.034 0.8 244 10.6 102740 90
2008-04-25 07:33:20 51°20.063 2°59.057 0.7 26 10.6 102740 90
2008-04-25 07:33:25 51°20.069 2°59.08 0.6 243 10.6 102740 90
2008-04-25 07:33:30 51°20.075 2°59.103 1 18 10.6 102740 90
2008-04-25 07:33:35 51°20.08 2°59.126 0.7 266 10.6 102740 90
2008-04-25 07:33:40 51°20.086 2°59.149 0.8 280 10.6 102740 90
2008-04-25 07:33:45 51°20.092 2°59.172 0.8 264 10.6 102740 90
2008-04-25 07:33:50 51°20.097 2°59.195 0.5 281 10.6 102740 90
2008-04-25 07:33:55 51°20.103 2°59.218 0.9 248 10.6 102740 90
2008-04-25 07:34:00 51°20.109 2°59.241 0.8 21 10.6 102740 90
2008-04-25 07:34:05 51°20.115 2°59.264 0.7 250 10.6 102740 90
2008-04-25 07:34:10 51°20.12 2°59.287 1 281 10.7 102740 90
2008-04-25 07:34:15 51°20.126 2°59.31 0.8 257 10.7 102740 90
2008-04-25 07:34:20 51°20.131 2°59.333 0.6 282 10.7 102740 90
2008-04-25 07:34:25 51°20.137 2°59.356 1.1 258 10.7 102740 90
2008-04-25 07:34:30 51°20.142 2°59.38 0.8 263 10.7 102740 90
2008-04-25 07:34:35 51°20.148 2°59.403 0.8 270 10.7 102740 90
2008-04-25 07:34:40 51°20.153 2°59.426 1 278 10.7 102740 90
2008-04-25 07:34:45 51°20.159 2°59.449 1.1 36 10.7 102740 90
2008-04-25 07:34:50 51°20.163 2°59.473 1 24 10.7 102740 90
2008-04-25 07:34:55 51°20.169 2°59.496 0.9 270 10.7 102740 90
2008-04-25 07:35:00 51°20.173 2°59.52 0.5 78 10.7 102740 90
2008-04-25 07:35:05 51°20.178 2°59.544 0.6 33 10.7 102740 90
2008-04-25 07:35:10 51°20.182 2°59.567 0.5 78 10.7 102740 90
2008-04-25 07:35:15 51°20.186 2°59.591 0.4 269 10.7 102740 90
2008-04-25 07:35:20 51°20.191 2°59.615 0.4 261 10.7 102740 90
2008-04-25 07:35:25 51°20.195 2°59.638 0.5 33 10.7 102740 90
2008-04-25 07:35:30 51°20.2 2°59.661 0.5 27 10.7 102740 90
2008-04-25 07:35:35 51°20.205 2°59.685 0.5 39 10.7 102740 90
2008-04-25 07:35:40 51°20.211 2°59.708 0.5 78 10.7 102740 90
2008-04-25 07:35:45 51°20.216 2°59.731 0.5 38 10.7 102740 90
2008-04-25 07:35:50 51°20.221 2°59.754 0.7 78 10.7 102740 90
2008-04-25 07:35:55 51°20.226 2°59.778 0.4 33 10.7 102740 90
2008-04-25 07:36:00 51°20.23 2°59.801 0.5 23 10.7 102740 90
2008-04-25 07:36:05 51°20.234 2°59.825 0.4 33 10.7 102740 90
2008-04-25 07:36:10 51°20.239 2°59.848 0.3 74 10.7 102740 90
2008-04-25 07:36:15 51°20.244 2°59.872 0.3 36 10.7 102740 90
2008-04-25 07:36:20 51°20.248 2°59.896 0.4 21 10.7 102740 90
2008-04-25 07:36:25 51°20.253 2°59.919 0.4 18 10.7 102740 90
2008-04-25 07:36:30 51°20.258 2°59.943 0.4 18 10.7 102750 90
2008-04-25 07:36:35 51°20.263 2°59.966 0.3 18 10.7 102750 90
2008-04-25 07:36:40 51°20.268 2°59.99 0.2 17 10.8 102740 90
2008-04-25 07:36:45 51°20.272 3°0.014 0.1 17 10.8 102740 90
2008-04-25 07:36:50 51°20.277 3°0.037 0.1 17 10.7 102740 89
2008-04-25 07:36:55 51°20.282 3°0.061 0.3 15 10.7 102740 89
2008-04-25 07:37:00 51°20.286 3°0.085 0.4 15 10.8 102750 89
2008-04-25 07:37:05 51°20.291 3°0.108 0.4 1 10.8 102750 89
2008-04-25 07:37:10 51°20.296 3°0.132 0.5 345 10.8 102740 89
2008-04-25 07:37:15 51°20.3 3°0.156 0.6 320 10.8 102740 89
2008-04-25 07:37:20 51°20.306 3°0.18 1 345 10.8 102750 89
2008-04-25 07:37:25 51°20.31 3°0.203 0.7 12 10.8 102750 89
2008-04-25 07:37:30 51°20.315 3°0.226 0.5 17 10.8 102750 89
2008-04-25 07:37:35 51°20.321 3°0.249 0.3 17 10.8 102750 89
2008-04-25 07:37:40 51°20.326 3°0.273 0.2 17 10.8 102750 89
2008-04-25 07:37:45 51°20.332 3°0.296 0.1 354 10.8 102750 89
2008-04-25 07:37:50 51°20.337 3°0.319 0.1 351 10.8 102750 89
2008-04-25 07:37:55 51°20.342 3°0.342 0.2 357 10.8 102750 89
2008-04-25 07:38:00 51°20.347 3°0.365 0.5 282 10.8 102740 89
2008-04-25 07:38:05 51°20.353 3°0.388 0.4 338 10.8 102740 89
2008-04-25 07:38:10 51°20.358 3°0.412 0.5 278 10.8 102750 89
2008-04-25 07:38:15 51°20.363 3°0.435 0.4 340 10.8 102750 89
2008-04-25 07:38:20 51°20.368 3°0.459 0.3 286 10.9 102750 90
2008-04-25 07:38:25 51°20.373 3°0.482 0.9 346 10.9 102750 90
2008-04-25 07:38:30 51°20.378 3°0.505 1.1 348 10.9 102740 90
2008-04-25 07:38:35 51°20.382 3°0.529 1.1 344 10.9 102740 90
2008-04-25 07:38:40 51°20.388 3°0.553 1 278 10.9 102750 90
2008-04-25 07:38:45 51°20.393 3°0.576 0.9 330 10.9 102750 90
2008-04-25 07:38:50 51°20.398 3°0.6 0.6 331 10.9 102750 90
2008-04-25 07:38:55 51°20.403 3°0.623 0.8 8 10.9 102750 90
2008-04-25 07:39:00 51°20.408 3°0.647 0.7 16 10.9 102750 90
2008-04-25 07:39:05 51°20.412 3°0.67 0.8 17 10.9 102750 90
2008-04-25 07:39:10 51°20.418 3°0.694 0.4 16 11 102740 89
2008-04-25 07:39:15 51°20.423 3°0.717 0.5 20 11 102740 89
2008-04-25 07:39:20 51°20.428 3°0.741 0.5 26 11 102740 89
2008-04-25 07:39:25 51°20.433 3°0.764 0.9 30 11 102740 89
2008-04-25 07:39:30 51°20.438 3°0.787 0.8 31 11 102750 89
2008-04-25 07:39:35 51°20.442 3°0.811 0.9 43 11 102750 89
2008-04-25 07:39:40 51°20.448 3°0.835 0.8 80 11 102750 89
2008-04-25 07:39:45 51°20.453 3°0.858 0.5 31 11 102750 89
2008-04-25 07:39:50 51°20.458 3°0.882 0.4 78 11 102750 89
2008-04-25 07:39:55 51°20.463 3°0.905 0.4 37 11 102750 89
2008-04-25 07:40:00 51°20.469 3°0.929 0.3 34 11 102750 89
2008-04-25 07:40:05 51°20.473 3°0.952 0.2 22 11 102750 89
2008-04-25 07:40:10 51°20.478 3°0.976 0.5 283 11 102750 89
2008-04-25 07:40:15 51°20.484 3°0.999 0.5 32 11 102750 89
2008-04-25 07:40:20 51°20.489 3°1.023 0.4 281 11.1 102750 89
2008-04-25 07:40:25 51°20.494 3°1.047 0.5 240 11.1 102750 89
2008-04-25 07:40:30 51°20.5 3°1.07 0.8 245 11.1 102750 89
2008-04-25 07:40:35 51°20.506 3°1.094 0.7 249 11.1 102750 89
2008-04-25 07:40:40 51°20.511 3°1.117 0.7 249 11.1 102750 89
2008-04-25 07:40:45 51°20.516 3°1.141 0.6 263 11.1 102750 89
2008-04-25 07:40:50 51°20.522 3°1.164 0.6 282 11.1 102750 89
2008-04-25 07:40:55 51°20.526 3°1.188 0.6 254 11.1 102750 89
2008-04-25 07:41:00 51°20.531 3°1.212 0.5 278 11.1 102750 89
2008-04-25 07:41:05 51°20.536 3°1.236 0.7 261 11.1 102750 89
2008-04-25 07:41:10 51°20.541 3°1.259 0.7 261 11.1 102750 89
2008-04-25 07:41:15 51°20.547 3°1.283 1 260 11.1 102750 89
2008-04-25 07:41:20 51°20.552 3°1.306 0.7 281 11.1 102750 89
2008-04-25 07:41:25 51°20.557 3°1.33 0.7 263 11.1 102750 89
2008-04-25 07:41:30 51°20.562 3°1.354 0.5 263 11.2 102750 89
2008-04-25 07:41:35 51°20.568 3°1.377 0.8 265 11.2 102750 89
2008-04-25 07:41:40 51°20.573 3°1.401 0.8 287 11.2 102750 89
2008-04-25 07:41:45 51°20.579 3°1.424 0.8 264 11.2 102750 89
2008-04-25 07:41:50 51°20.584 3°1.448 0.8 281 11.2 102750 89
2008-04-25 07:41:55 51°20.59 3°1.472 0.9 262 11.2 102750 89
2008-04-25 07:42:00 51°20.596 3°1.495 0.9 286 11.2 102750 89
2008-04-25 07:42:05 51°20.602 3°1.518 0.9 264 11.2 102750 89
2008-04-25 07:42:10 51°20.608 3°1.541 0.9 261 11.2 102750 89
2008-04-25 07:42:15 51°20.615 3°1.564 1 265 11.2 102750 89
2008-04-25 07:42:20 51°20.62 3°1.587 1.2 266 11.2 102760 88
2008-04-25 07:42:25 51°20.627 3°1.61 1.2 268 11.2 102760 88
2008-04-25 07:42:30 51°20.633 3°1.633 1 268 11.2 102760 88
2008-04-25 07:42:35 51°20.639 3°1.656 0.9 269 11.2 102760 88
2008-04-25 07:42:40 51°20.645 3°1.68 0.8 284 11.2 102750 88
2008-04-25 07:42:45 51°20.651 3°1.703 0.8 272 11.2 102750 88
2008-04-25 07:42:50 51°20.657 3°1.726 0.9 285 11.2 102750 88
2008-04-25 07:42:55 51°20.662 3°1.749 0.6 253 11.2 102750 88
2008-04-25 07:43:00 51°20.668 3°1.772 0.6 281 11.2 102750 88
2008-04-25 07:43:05 51°20.674 3°1.795 0.5 241 11.2 102750 88
2008-04-25 07:43:10 51°20.68 3°1.818 0.3 282 11.3 102760 88
2008-04-25 07:43:15 51°20.686 3°1.841 0.8 241 11.3 102760 88
2008-04-25 07:43:20 51°20.692 3°1.865 1.3 281 11.2 102760 88
2008-04-25 07:43:25 51°20.698 3°1.888 1.1 322 11.2 102760 88
2008-04-25 07:43:30 51°20.703 3°1.912 1 323 11.3 102750 87
2008-04-25 07:43:35 51°20.708 3°1.935 0.7 329 11.3 102750 87
2008-04-25 07:43:40 51°20.713 3°1.959 1.1 281 11.3 102750 87
2008-04-25 07:43:45 51°20.717 3°1.983 0.9 327 11.3 102750 87
2008-04-25 07:43:50 51°20.722 3°2.007 0.7 283 11.3 102760 87
2008-04-25 07:43:55 51°20.726 3°2.031 0.6 319 11.3 102760 87
2008-04-25 07:44:00 51°20.731 3°2.055 0.8 278 11.3 102750 87
2008-04-25 07:44:05 51°20.735 3°2.079 0.9 337 11.3 102750 87
2008-04-25 07:44:10 51°20.74 3°2.103 0.7 287 11.3 102750 87
2008-04-25 07:44:15 51°20.745 3°2.127 0.7 33 11.3 102750 87
2008-04-25 07:44:20 51°20.75 3°2.15 0.7 287 11.3 102750 87
2008-04-25 07:44:25 51°20.756 3°2.174 1.3 34 11.3 102750 87
2008-04-25 07:44:30 51°20.761 3°2.197 1.3 316 11.3 102760 87
2008-04-25 07:44:35 51°20.767 3°2.22 1.1 34 11.3 102760 87
2008-04-25 07:44:40 51°20.773 3°2.243 0.6 282 11.3 102750 87
2008-04-25 07:44:45 51°20.779 3°2.266 0.8 245 11.3 102750 87
2008-04-25 07:44:50 51°20.785 3°2.289 0.9 279 11.3 102760 87
2008-04-25 07:44:55 51°20.791 3°2.313 1 238 11.3 102760 87
2008-04-25 07:45:00 51°20.797 3°2.335 1 19 11.3 102750 87
2008-04-25 07:45:05 51°20.803 3°2.359 0.8 249 11.3 102750 87
2008-04-25 07:45:10 51°20.809 3°2.382 0.6 283 11.3 102750 87
2008-04-25 07:45:15 51°20.815 3°2.405 0.5 247 11.3 102750 87
2008-04-25 07:45:20 51°20.82 3°2.429 0.3 278 11.3 102750 87
2008-04-25 07:45:25 51°20.825 3°2.453 0.3 34 11.3 102750 87
2008-04-25 07:45:30 51°20.83 3°2.476 0.4 28 11.3 102750 87
2008-04-25 07:45:35 51°20.834 3°2.5 0.4 326 11.3 102750 87
2008-04-25 07:45:40 51°20.839 3°2.523 0.3 277 11.4 102750 87
2008-04-25 07:45:45 51°20.843 3°2.547 0.2 333 11.4 102750 87
2008-04-25 07:45:50 51°20.848 3°2.57 0.2 318 11.4 102750 87
2008-04-25 07:45:55 51°20.853 3°2.594 0.5 39 11.4 102750 87
2008-04-25 07:46:00 51°20.858 3°2.617 0.8 278 11.4 102750 87
2008-04-25 07:46:05 51°20.864 3°2.64 0.8 236 11.4 102750 87
2008-04-25 07:46:10 51°20.869 3°2.663 0.7 26 11.4 102750 87
2008-04-25 07:46:15 51°20.875 3°2.686 1.1 33 11.4 102750 87
2008-04-25 07:46:20 51°20.881 3°2.709 0.9 278 11.4 102750 87
2008-04-25 07:46:25 51°20.886 3°2.732 0.9 239 11.4 102750 87
2008-04-25 07:46:30 51°20.892 3°2.754 0.9 27 11.4 102750 87
2008-04-25 07:46:35 51°20.898 3°2.777 0.7 244 11.4 102750 87
2008-04-25 07:46:40 51°20.903 3°2.8 0.7 283 11.4 102750 86
2008-04-25 07:46:45 51°20.909 3°2.823 0.6 243 11.4 102750 86
2008-04-25 07:46:50 51°20.915 3°2.845 0.9 282 11.4 102750 86
2008-04-25 07:46:55 51°20.92 3°2.868 0.6 40 11.4 102750 86
2008-04-25 07:47:00 51°20.925 3°2.891 0.9 277 11.4 102750 86
2008-04-25 07:47:05 51°20.931 3°2.913 1 269 11.4 102750 86
2008-04-25 07:47:10 51°20.936 3°2.936 0.9 74 11.4 102750 86
2008-04-25 07:47:15 51°20.941 3°2.958 0.8 32 11.4 102750 86
2008-04-25 07:47:20 51°20.946 3°2.981 0.8 25 11.4 102750 86
2008-04-25 07:47:25 51°20.952 3°3.004 0.5 270 11.4 102750 86
2008-04-25 07:47:30 51°20.956 3°3.027 0.5 270 11.4 102750 86
2008-04-25 07:47:35 51°20.961 3°3.05 0.5 33 11.4 102750 86
2008-04-25 07:47:40 51°20.966 3°3.073 0.9 74 11.4 102750 86
2008-04-25 07:47:45 51°20.971 3°3.096 0.7 28 11.4 102750 86
2008-04-25 07:47:50 51°20.976 3°3.119 0.7 24 11.4 102750 86
2008-04-25 07:47:55 51°20.982 3°3.141 0.7 267 11.4 102750 86
2008-04-25 07:48:00 51°20.986 3°3.164 0.5 282 11.4 102750 85
2008-04-25 07:48:05 51°20.991 3°3.187 0.5 321 11.4 102750 85
2008-04-25 07:48:10 51°20.996 3°3.21 0.4 318 11.4 102750 85
2008-04-25 07:48:15 51°21.001 3°3.233 0.6 237 11.4 102750 85
2008-04-25 07:48:20 51°21.006 3°3.257 0.3 282 11.4 102750 85
2008-04-25 07:48:25 51°21.01 3°3.28 0.3 30 11.4 102750 85
2008-04-25 07:48:30 51°21.014 3°3.303 0.3 21 11.4 102750 85
2008-04-25 07:48:35 51°21.018 3°3.327 0.4 25 11.4 102750 85
2008-04-25 07:48:40 51°21.022 3°3.351 0.7 2 11.4 102750 85
2008-04-25 07:48:45 51°21.027 3°3.375 0.5 4 11.4 102750 85
2008-04-25 07:48:50 51°21.031 3°3.398 0.4 2 11.4 102750 85
2008-04-25 07:48:55 51°21.036 3°3.422 0.6 336 11.4 102750 85
2008-04-25 07:49:00 51°21.041 3°3.445 0.4 336 11.4 102750 85
2008-04-25 07:49:05 51°21.045 3°3.469 0.3 36 11.4 102750 85
2008-04-25 07:49:10 51°21.05 3°3.492 0.5 285 11.4 102750 84
2008-04-25 07:49:15 51°21.055 3°3.516 0.3 251 11.4 102750 84
2008-04-25 07:49:20 51°21.059 3°3.539 0.6 254 11.4 102760 84
2008-04-25 07:49:25 51°21.064 3°3.563 0.5 251 11.4 102760 84
2008-04-25 07:49:30 51°21.069 3°3.585 0.9 252 11.4 102750 84
2008-04-25 07:49:35 51°21.074 3°3.608 0.7 261 11.4 102750 84
2008-04-25 07:49:40 51°21.08 3°3.63 0.7 282 11.4 102760 84
2008-04-25 07:49:45 51°21.086 3°3.653 1 258 11.4 102760 84
2008-04-25 07:49:50 51°21.093 3°3.675 0.9 278 11.4 102750 85
2008-04-25 07:49:55 51°21.099 3°3.697 1.1 261 11.4 102750 85
2008-04-25 07:50:00 51°21.106 3°3.718 0.7 287 11.4 102760 85
2008-04-25 07:50:05 51°21.112 3°3.741 0.6 256 11.4 102760 85
2008-04-25 07:50:10 51°21.119 3°3.762 1.1 255 11.4 102760 85
2008-04-25 07:50:15 51°21.126 3°3.784 0.6 250 11.4 102760 85
2008-04-25 07:50:20 51°21.133 3°3.805 1.4 277 11.4 102760 84
2008-04-25 07:50:25 51°21.141 3°3.827 1.2 246 11.4 102760 84
2008-04-25 07:50:30 51°21.148 3°3.848 1.2 246 11.4 102760 84
2008-04-25 07:50:35 51°21.156 3°3.869 1.6 252 11.4 102760 84
2008-04-25 07:50:40 51°21.163 3°3.89 0.8 279 11.4 102760 84
2008-04-25 07:50:45 51°21.171 3°3.911 2 240 11.4 102760 84
2008-04-25 07:50:50 51°21.179 3°3.932 1.8 282 11.4 102750 84
2008-04-25 07:50:55 51°21.186 3°3.953 1.9 255 11.4 102750 84
2008-04-25 07:51:00 51°21.193 3°3.975 0.9 286 11.4 102760 84
2008-04-25 07:51:05 51°21.199 3°3.996 0.9 262 11.4 102760 84
2008-04-25 07:51:10 51°21.205 3°4.019 1.5 280 11.4 102760 84
2008-04-25 07:51:15 51°21.211 3°4.041 1.2 270 11.4 102760 84
2008-04-25 07:51:20 51°21.217 3°4.063 0.8 282 11.4 102750 84
2008-04-25 07:51:25 51°21.222 3°4.086 0.6 264 11.4 102750 84
2008-04-25 07:51:30 51°21.229 3°4.108 0.8 264 11.4 102760 84
2008-04-25 07:51:35 51°21.234 3°4.13 1.1 259 11.4 102760 84
2008-04-25 07:51:40 51°21.24 3°4.152 0.9 258 11.4 102750 84
2008-04-25 07:51:45 51°21.246 3°4.174 1.4 267 11.4 102750 84
2008-04-25 07:51:50 51°21.252 3°4.197 1.3 284 11.4 102760 84
2008-04-25 07:51:55 51°21.258 3°4.219 1.7 39 11.4 102760 84
2008-04-25 07:52:00 51°21.263 3°4.242 1.2 280 11.4 102750 84
2008-04-25 07:52:05 51°21.268 3°4.265 1.3 268 11.4 102750 84
2008-04-25 07:52:10 51°21.273 3°4.288 1 81 11.4 102760 84
2008-04-25 07:52:15 51°21.279 3°4.31 1 37 11.4 102760 84
2008-04-25 07:52:20 51°21.284 3°4.333 1 284 11.4 102750 83
2008-04-25 07:52:25 51°21.289 3°4.356 0.9 268 11.4 102750 83
2008-04-25 07:52:30 51°21.294 3°4.379 1.1 21 11.4 102760 83
2008-04-25 07:52:35 51°21.3 3°4.401 1.1 39 11.4 102760 83
2008-04-25 07:52:40 51°21.306 3°4.424 1.1 291 11.4 102760 83
2008-04-25 07:52:45 51°21.312 3°4.446 1.2 37 11.4 102760 83
2008-04-25 07:52:50 51°21.318 3°4.468 1.2 19 11.4 102750 83
2008-04-25 07:52:55 51°21.324 3°4.49 1.3 37 11.4 102750 83
2008-04-25 07:53:00 51°21.33 3°4.512 1.4 83 11.3 102750 83
2008-04-25 07:53:05 51°21.336 3°4.534 1.1 37 11.3 102750 83
2008-04-25 07:53:10 51°21.342 3°4.556 0.9 20 11.3 102750 83
2008-04-25 07:53:15 51°21.348 3°4.578 1 43 11.3 102750 83
2008-04-25 07:53:20 51°21.354 3°4.6 1.2 26 11.3 102750 83
2008-04-25 07:53:25 51°21.36 3°4.622 1 38 11.3 102750 83
2008-04-25 07:53:30 51°21.366 3°4.644 1.1 270 11.3 102760 83
2008-04-25 07:53:35 51°21.372 3°4.667 0.5 39 11.3 102760 83
2008-04-25 07:53:40 51°21.379 3°4.689 0.6 18 11.3 102760 83
2008-04-25 07:53:45 51°21.384 3°4.711 1 249 11.3 102760 83
2008-04-25 07:53:50 51°21.39 3°4.734 0.9 315 11.3 102750 83
2008-04-25 07:53:55 51°21.396 3°4.756 0.5 249 11.3 102750 83
2008-04-25 07:54:00 51°21.401 3°4.779 0.4 267 11.3 102750 83
2008-04-25 07:54:05 51°21.407 3°4.801 0.4 243 11.3 102750 83
2008-04-25 07:54:10 51°21.413 3°4.824 0.9 315 11.3 102760 83
2008-04-25 07:54:15 51°21.418 3°4.847 1.2 322 11.3 102760 83
2008-04-25 07:54:20 51°21.424 3°4.869 1.1 324 11.3 102750 83
2008-04-25 07:54:25 51°21.429 3°4.892 0.9 316 11.3 102750 83
2008-04-25 07:54:30 51°21.435 3°4.914 1.1 26 11.2 102760 83
2008-04-25 07:54:35 51°21.441 3°4.937 1.2 326 11.2 102760 83
2008-04-25 07:54:40 51°21.446 3°4.959 1.3 315 11.2 102750 83
2008-04-25 07:54:45 51°21.451 3°4.983 1.2 36 11.2 102750 83
2008-04-25 07:54:50 51°21.456 3°5.005 1.2 18 11.2 102750 83
2008-04-25 07:54:55 51°21.461 3°5.029 1.1 320 11.2 102750 83
2008-04-25 07:55:00 51°21.466 3°5.051 1.1 330 11.3 102760 83
2008-04-25 07:55:05 51°21.471 3°5.074 1 330 11.3 102760 83
2008-04-25 07:55:10 51°21.476 3°5.097 1.2 330 11.2 102750 83
2008-04-25 07:55:15 51°21.481 3°5.12 1.4 327 11.2 102750 83
2008-04-25 07:55:20 51°21.486 3°5.143 1.3 334 11.2 102750 83
2008-04-25 07:55:25 51°21.491 3°5.166 1.1 332 11.2 102750 83
2008-04-25 07:55:30 51°21.496 3°5.189 0.9 28 11.2 102760 83
2008-04-25 07:55:35 51°21.5 3°5.212 0.7 233 11.2 102760 83
2008-04-25 07:55:40 51°21.506 3°5.234 0.7 26 11.2 102760 83
2008-04-25 07:55:45 51°21.511 3°5.257 0.8 242 11.2 102760 83
2008-04-25 07:55:50 51°21.517 3°5.279 1.4 26 11.3 102760 84
2008-04-25 07:55:55 51°21.522 3°5.302 0.9 243 11.3 102760 84
2008-04-25 07:56:00 51°21.528 3°5.324 0.8 24 11.3 102760 84
2008-04-25 07:56:05 51°21.533 3°5.346 0.5 237 11.3 102760 84
2008-04-25 07:56:10 51°21.539 3°5.369 0.6 26 11.3 102760 84
2008-04-25 07:56:15 51°21.543 3°5.391 0.4 37 11.3 102760 84
2008-04-25 07:56:20 51°21.549 3°5.414 0.4 19 11.3 102750 84
2008-04-25 07:56:25 51°21.554 3°5.437 0.4 30 11.3 102750 84
2008-04-25 07:56:30 51°21.559 3°5.459 0.4 20 11.3 102760 84
2008-04-25 07:56:35 51°21.564 3°5.482 0.2 345 11.3 102760 84
2008-04-25 07:56:40 51°21.569 3°5.505 0.2 343 11.3 102760 84
2008-04-25 07:56:45 51°21.574 3°5.527 0.4 329 11.3 102760 84
2008-04-25 07:56:50 51°21.579 3°5.55 0.5 325 11.3 102760 84
2008-04-25 07:56:55 51°21.584 3°5.573 0.7 336 11.3 102760 84
2008-04-25 07:57:00 51°21.589 3°5.595 0.8 327 11.3 102760 84
2008-04-25 07:57:05 51°21.594 3°5.618 1.2 339 11.3 102760 84
2008-04-25 07:57:10 51°21.599 3°5.64 1.2 343 11.3 102760 84
2008-04-25 07:57:15 51°21.605 3°5.663 1 330 11.3 102760 84
2008-04-25 07:57:20 51°21.61 3°5.685 0.8 326 11.3 102760 84
2008-04-25 07:57:25 51°21.616 3°5.708 0.8 325 11.3 102760 84
2008-04-25 07:57:30 51°21.621 3°5.73 0.7 332 11.3 102760 84
2008-04-25 07:57:35 51°21.627 3°5.752 0.4 31 11.3 102760 84
2008-04-25 07:57:40 51°21.633 3°5.774 0.4 21 11.3 102760 84
2008-04-25 07:57:45 51°21.639 3°5.796 0.4 245 11.3 102760 84
2008-04-25 07:57:50 51°21.645 3°5.818 0.4 252 11.3 102760 84
2008-04-25 07:57:55 51°21.651 3°5.84 0.3 248 11.3 102760 84
2008-04-25 07:58:00 51°21.656 3°5.862 0.2 20 11.3 102760 84
2008-04-25 07:58:05 51°21.661 3°5.884 0.1 244 11.3 102760 84
2008-04-25 07:58:10 51°21.666 3°5.907 0.1 21 11.3 102760 84
2008-04-25 07:58:15 51°21.671 3°5.929 0.1 320 11.3 102760 84
2008-04-25 07:58:20 51°21.676 3°5.951 0.1 316 11.3 102760 84
2008-04-25 07:58:25 51°21.682 3°5.973 0.1 240 11.3 102760 84
2008-04-25 07:58:30 51°21.688 3°5.995 0.2 25 11.3 102760 84
2008-04-25 07:58:35 51°21.693 3°6.018 0.2 247 11.3 102760 84
2008-04-25 07:58:40 51°21.698 3°6.04 0.2 248 11.3 102760 83
2008-04-25 07:58:45 51°21.703 3°6.062 0.3 37 11.3 102760 83
2008-04-25 07:58:50 51°21.708 3°6.084 0.3 30 11.3 102760 83
2008-04-25 07:58:55 51°21.714 3°6.107 0.2 270 11.3 102760 83
2008-04-25 07:59:00 51°21.719 3°6.129 0.2 270 11.3 102760 83
2008-04-25 07:59:05 51°21.724 3°6.151 0.1 270 11.3 102760 83
2008-04-25 07:59:10 51°21.729 3°6.173 0.1 270 11.3 102760 83
2008-04-25 07:59:15 51°21.735 3°6.196 -999 269 11.3 102760 83
2008-04-25 07:59:20 51°21.74 3°6.218 -999 269 11.3 102760 83
2008-04-25 07:59:25 51°21.745 3°6.24 -999 38 11.3 102760 83
2008-04-25 07:59:30 51°21.751 3°6.262 0.1 9 11.4 102760 83
2008-04-25 07:59:35 51°21.756 3°6.285 0.4 257 11.4 102760 83
2008-04-25 07:59:40 51°21.762 3°6.307 0.4 257 11.4 102760 83
2008-04-25 07:59:45 51°21.769 3°6.329 0.6 253 11.4 102760 83